Du Bois, PA

1:07 PM EDT on May 26, 2017 (GMT -0400)
Du Bois-Jefferson County

Weather History for KDUJ - January, 2014

Change the Weather History Date:

Wednesday, January 1, 2014

  Actual Average Record
Temperature  
Mean Temperature 21 °F 24 °F  
Max Temperature 25 °F 31 °F 60 °F (1985)
Min Temperature 16 °F 17 °F -2 °F (1977)
Degree Days  
Heating Degree Days 44 41  
Month to date heating degree days 44 41  
Since 1 July heating degree days 2531 2703  
Cooling Degree Days 0 0  
Month to date cooling degree days 0 0  
Year to date cooling degree days 0 0  
Moisture  
Dew Point 15 °F    
Average Humidity 78    
Maximum Humidity 81    
Minimum Humidity 74    
Precipitation  
Precipitation 0.01 in 0.11 in 1.19 in (2003)
Month to date precipitation 0.01 0.11  
Sea Level Pressure  
Sea Level Pressure 30.24 in    
Wind  
Wind Speed 5 mph (SE)    
Max Wind Speed 18 mph    
Max Gust Speed 22 mph    
Visibility 6 miles    
Events Snow    
T = Trace of Precipitation, MM = Missing Value Source: NWS Daily Summary

Daily Weather History Graph

Daily Weather History Graph

Search for Another Location

Airport or City:

Trip Planner

Search our weather history database for the weather conditions in past years. The results will help you decide how hot, cold, wet, or windy it might be!

Date:

Astronomy

Jan. 01, 2014 Rise Set
Actual Time 7:41 AM EST 4:57 PM EST
Civil Twilight 7:10 AM EST 5:28 PM EST
Nautical Twilight 6:35 AM EST 6:03 PM EST
Astronomical Twilight 6:01 AM EST 6:36 PM EST
Moon 7:29 AM EST (1/1) 5:41 PM EST (1/1)
Length of Visible Light 10h 18m
Length of Day
9h 16m
New Moon, 0% of the Moon is Illuminated
Jan 1
New Moon
Jan 7
First Quarter
Jan 15
Full
Jan 24
Last Quarter
Jan 30
New

Hourly Weather History & Observations

Time (EST) Temp. Windchill Dew Point Humidity Pressure Visibility Wind Dir Wind Speed Gust Speed Precip Events Conditions
12:21 AM 15.8 °F 3.4 °F 10.4 °F 79% 30.19 in 3.0 mi West 10.4 mph - 0.00 in Snow Light Snow
12:56 AM 17.1 °F 5.0 °F 12.0 °F 81% 30.27 in 3.0 mi West 10.4 mph - 0.00 in Snow Light Snow
1:28 AM 17.6 °F 5.7 °F 12.2 °F 79% 30.20 in 2.5 mi West 10.4 mph - 0.00 in Snow Light Snow
1:35 AM 17.6 °F 5.0 °F 12.2 °F 79% 30.20 in 3.0 mi West 11.5 mph - 0.00 in Snow Light Snow
1:44 AM 17.6 °F 2.7 °F 12.2 °F 79% 30.20 in 2.0 mi West 16.1 mph 21.9 mph 0.00 in Snow Light Snow
1:56 AM 18.0 °F 5.4 °F 12.0 °F 78% 30.30 in 3.0 mi West 11.5 mph 20.7 mph 0.00 in Snow Light Snow
2:56 AM 17.1 °F 5.8 °F 12.9 °F 84% 30.31 in 4.0 mi WSW 9.2 mph - 0.00 in   Overcast
3:56 AM 17.1 °F 5.8 °F 12.0 °F 81% 30.31 in 5.0 mi WSW 9.2 mph - N/A   Haze
4:56 AM 17.1 °F 7.6 °F 12.9 °F 84% 30.30 in 6.0 mi WSW 6.9 mph - N/A   Overcast
5:56 AM 17.1 °F 8.7 °F 12.9 °F 84% 30.30 in 4.0 mi WSW 5.8 mph - N/A   Overcast
6:56 AM 17.1 °F 11.7 °F 12.9 °F 84% 30.32 in 6.0 mi SW 3.5 mph - 0.00 in   Overcast
7:51 AM 17.6 °F - 12.2 °F 79% 30.22 in 2.0 mi Calm Calm - 0.00 in Snow Light Snow
7:56 AM 17.1 °F - 12.9 °F 84% 30.32 in 1.8 mi Calm Calm - 0.00 in Snow Light Snow
8:28 AM 17.6 °F - 14.0 °F 86% 30.23 in 2.5 mi Calm Calm - 0.00 in   Overcast
8:56 AM 19.0 °F - 14.0 °F 81% 30.33 in 2.0 mi Calm Calm - 0.00 in Snow Light Snow
9:10 AM 19.4 °F - 12.2 °F 74% 30.24 in 1.8 mi Calm Calm - 0.00 in Snow Light Snow
9:56 AM 19.9 °F - 14.0 °F 78% 30.34 in 1.2 mi Calm Calm - 0.01 in Snow Light Snow
10:24 AM 19.4 °F - 15.8 °F 86% 30.25 in 1.8 mi Calm Calm - 0.00 in   Haze
10:32 AM 21.2 °F - 15.8 °F 80% 30.25 in 2.5 mi Calm Calm - 0.00 in   Haze
10:39 AM 21.2 °F - 15.8 °F 80% 30.25 in 3.0 mi Calm Calm - 0.00 in   Haze
10:56 AM 21.0 °F 16.2 °F 15.1 °F 78% 30.35 in 7.0 mi SE 3.5 mph - 0.00 in   Overcast
11:56 AM 21.0 °F - 15.1 °F 78% 30.31 in 6.0 mi Calm Calm - N/A   Haze
12:03 PM 21.2 °F - 15.8 °F 80% 30.22 in 4.0 mi Calm Calm - N/A   Haze
12:56 PM 23.0 °F - 17.1 °F 78% 30.28 in 7.0 mi Calm Calm - N/A   Overcast
1:33 PM 24.8 °F - 17.6 °F 74% 30.18 in 10.0 mi Calm Calm - N/A   Overcast
1:47 PM 24.8 °F - 17.6 °F 74% 30.18 in 10.0 mi Calm Calm - N/A   Overcast
1:56 PM 24.1 °F 19.7 °F 17.1 °F 75% 30.26 in 10.0 mi ESE 3.5 mph - N/A   Overcast
2:56 PM 25.0 °F 19.3 °F 18.0 °F 75% 30.24 in 10.0 mi ENE 4.6 mph - N/A   Overcast
3:56 PM 25.0 °F 19.3 °F 18.0 °F 75% 30.23 in 10.0 mi ENE 4.6 mph - N/A   Overcast
4:56 PM 24.1 °F 16.0 °F 18.0 °F 77% 30.22 in 10.0 mi NE 6.9 mph - N/A   Mostly Cloudy
5:56 PM 23.0 °F 17.0 °F 18.0 °F 81% 30.22 in 10.0 mi ENE 4.6 mph - N/A   Overcast
6:56 PM 23.0 °F 15.8 °F 18.0 °F 81% 30.22 in 10.0 mi East 5.8 mph - N/A   Overcast
7:56 PM 23.0 °F 14.7 °F 18.0 °F 81% 30.21 in 10.0 mi ENE 6.9 mph - N/A   Overcast
8:56 PM 23.0 °F 14.7 °F 18.0 °F 81% 30.18 in 10.0 mi East 6.9 mph - N/A   Overcast
9:56 PM 24.1 °F 14.4 °F 18.0 °F 77% 30.14 in 10.0 mi East 9.2 mph - N/A   Overcast
10:56 PM 24.1 °F 14.4 °F 18.0 °F 77% 30.12 in 10.0 mi East 9.2 mph - N/A   Overcast
11:56 PM 23.0 °F 15.8 °F 18.0 °F 81% 30.09 in 10.0 mi East 5.8 mph - N/A   Overcast